Regional Weather Roundup
Issued by NWS

Home | Current Version | Previous Version | Text Only | Print | Product List | Glossary Off
Versions: 1 2 3 4 5 6 7 8 9 10 11 12 13 14 15 16 17 18 19 20 21 22 23 24 25 26 27

000
ASUS45 KCYS 170210
RWRWY

WYOMING REGIONAL WEATHER ROUNDUP
NATIONAL WEATHER SERVICE CHEYENNE WY
700 PM MST TUE JAN 16 2018

NOTE:  "FAIR" INDICATES FEW OR NO CLOUDS BELOW 12,000 FEET
WITH NO SIGNIFICANT WEATHER AND/OR OBSTRUCTIONS TO VISIBILITY.

WYZ001-170300-
YELLOWSTONE NATIONAL PARK

CITY           SKY/WX    TMP DP  RH WIND       PRES   REMARKS
LK YELLOWSTONE   N/A      3   0  87 W3        30.32R
W YELLOWSTONE  NOT AVBL

$$
WYZ002>013-054>058-071-098>099-170300-
NORTHERN WYOMING

CITY           SKY/WX    TMP DP  RH WIND       PRES   REMARKS
JACKSON        FAIR       7   3  84 CALM      30.34R
CODY           FAIR      17  12  80 CALM      30.16F
GREYBULL       FAIR       7   2  80 CALM      30.22S
WORLAND        FAIR       9   6  88 CALM      30.20R
SHERIDAN       FAIR       8   1  73 S6        30.13F WCI  -2
BUFFALO        FAIR      28  15  58 SW3       30.12F
GILLETTE         N/A     21  11  65 S16       30.17S WCI   7
HULETT         FAIR      32   3  29 SW13      30.18F WCI  22
NEWCASTLE      FAIR      14   0  52 CALM      30.26S

$$
WYZ014>020-022>026-101>103-170300-
CENTRAL WYOMING

CITY           SKY/WX    TMP DP  RH WIND       PRES   REMARKS
BIG PINEY      FAIR      13   8  81 N5        30.29S WCI   5
PINEDALE       FAIR       3   0  85 W6        30.29S WCI  -8
DUBOIS         FAIR      28   3  34 W14       30.19S WCI  17
LANDER         FAIR      16  12  84 SW6       30.22S WCI   7
RIVERTON       FAIR      13   8  81 CALM      30.23S
CASPER         FAIR      30   4  33 SW13      30.20R WCI  20
DOUGLAS        FAIR      15   7  70 CALM      30.22F

$$
WYZ021-027>030-104>119-170300-
SOUTHERN WYOMING

CITY           SKY/WX    TMP DP  RH WIND       PRES   REMARKS
EVANSTON       FAIR      28  15  58 N6        30.30R WCI  22
FORT BRIDGER   FAIR      28  10  47 CALM      30.32R
ROCK SPRINGS   FAIR      19   8  62 W8        30.29R WCI   9
DIXON            N/A     17  10  72 CALM      30.33R
RAWLINS        FAIR      22  -3  33 CALM      30.27R
SARATOGA       FAIR      21   3  45 S7        30.27S WCI  13
LARAMIE        FAIR      21  -3  35 SE7       30.21F WCI  12
CHEYENNE       FAIR      17   8  67 SW8       30.23F WCI   7
TORRINGTON     FAIR      13   7  77 E8        30.27S WCI   2

$$




USA.gov is the U.S. government's official web portal to all federal, state and local government web resources and services.